Content
SEND FEEDBACK

Daily
Averages
Monthly
Summary
United States of America

CHICAGO, ILLINOIS


Home > North America > United States > Illinois
Elevation: 674 feet     Latitude: 41 59N     Longitude: 087 54W

WEATHER
 
SELECT A DAY
Number of Records: 194,883;   Date Range: 7/8/95 - 7/29/14
 
SHARE

PRINT THIS DATA

[ ← Previous Day ]
WEATHER ALMANAC - NOVEMBER 9, 2013
[ Next Day → ]
[ °C ]   °F
Weather ElementAverageHighLow
Temperature50.9 °F57.9 °F (1:52 pm)42.1 °F (11:52 pm)
Dewpoint34.6 °F39 °F (10:52 am)23 °F (10:52 pm)
Humidity53.9 %63 % (5:52 am)43 % (10:52 pm)
Barometer29.94 in30.12 in (11:52 pm)29.86 in (3:52 am)
Wind Speed15 mph24.2 mph (1:52 am)
Wind Gust32.2 mph (1:52 pm)
Weather ElementAverage
Visibility10 mi
Wind DirectionWSW (252.6 °)

Weather ElementTotal
Precipitation---
Heating Degree Days15 (Base 65)
Averaged from 23 records on November 9, 2013
WEATHER CONDITIONS BREAKOUT
WIND DIRECTION BREAKOUT
WEATHER BY HOUR - NOVEMBER 9, 2013
[ °C ]   °F
Local TimeTemperatureDewpointHumidityBarometerVisibilityWind DirectionWind SpeedGust SpeedPrecipitationEventsConditions
1:52 AM48.9 °F32.0 °F52 %29.89 in10.0 miSSW (200°)24.2 mph31.1 mphClear
2:52 AM48.9 °F33.1 °F54 %29.88 in10.0 miSSW (200°)17.3 mph26.5 mphClear
3:52 AM48.0 °F34.0 °F58 %29.86 in10.0 miSSW (200°)12.7 mph20.7 mphClear
4:52 AM48.0 °F35.1 °F61 %29.86 in10.0 miSW (220°)11.5 mph20.7 mphClear
5:52 AM48.0 °F36.0 °F63 %29.86 in10.0 miSSW (210°)12.7 mph25.3 mphClear
6:52 AM48.0 °F36.0 °F63 %29.86 in10.0 miSW (220°)10.4 mph18.4 mphClear
7:52 AM50.0 °F37.0 °F61 %29.88 in10.0 miSW (230°)12.7 mph17.3 mphPartly Cloudy
8:52 AM51.1 °F37.9 °F61 %29.87 in10.0 miWSW (240°)13.8 mph20.7 mphClear
9:52 AM54.0 °F37.9 °F55 %29.88 in10.0 miWest (260°)13.8 mph27.6 mphClear
10:52 AM55.9 °F39.0 °F53 %29.89 in10.0 miWSW (250°)13.8 mph24.2 mphClear
11:52 AM57.0 °F37.9 °F49 %29.89 in10.0 miWest (270°)15.0 mph26.5 mphMostly Cloudy
12:52 PM57.0 °F37.0 °F47 %29.88 in10.0 miWest (260°)20.7 mph29.9 mphScattered Clouds
1:52 PM57.9 °F37.0 °F46 %29.89 in10.0 miWest (270°)15.0 mph32.2 mphMostly Cloudy
2:52 PM57.0 °F37.0 °F47 %29.91 in10.0 miWest (270°)23.0 mph32.2 mphMostly Cloudy
3:52 PM55.9 °F37.0 °F49 %29.94 in10.0 miWNW (290°)17.3 mph28.8 mphPartly Cloudy
4:52 PM54.0 °F37.0 °F53 %29.96 in10.0 miWest (260°)13.8 mph20.7 mphClear
5:52 PM52.0 °F37.0 °F57 %29.98 in10.0 miWest (260°)10.4 mph17.3 mphClear
6:52 PM51.1 °F35.1 °F54 %30.02 in10.0 miWest (270°)16.1 mph29.9 mphClear
7:52 PM48.9 °F35.1 °F59 %30.03 in10.0 miWNW (290°)12.7 mph19.6 mphClear
8:52 PM48.0 °F33.1 °F56 %30.05 in10.0 miWest (280°)10.4 mph20.7 mphClear
9:52 PM46.0 °F28.9 °F51 %30.06 in10.0 miWest (280°)13.8 mph28.8 mphPartly Cloudy
10:52 PM44.1 °F23.0 °F43 %30.09 in10.0 miWNW (290°)20.7 mph28.8 mphClear
11:52 PM42.1 °F23.0 °F47 %30.12 in10.0 miWNW (290°)12.7 mph25.3 mphClear
Hourly data recorded from KPWK, located miles away from Chicago, Illinois







STORIES FROM OUR PARTNERS